[[{"header":{"parameterUnit":"m.s-1","parameterCategory":1,"la1":30.2991,"la2":30.254,"lo1":-89.0895,"lo2":-89.0444,"dy":0.0017,"dx":0.0017,"nx":28,"ny":28,"refTime":"2024-07-24T03:00:00:Z","depth":0,"parameterNumber":2,"parameterNumberName":"U-component_of_WINDS"},"data":[0,0,0,0,0,0,0,0,0,0,0,0,0,0,0,0,0,0,0,0,0,0,0,0,0,0,0,0,0,0,0,0,0,0,0,0,0,0,0,0,0,0,0,0,0,0,0,0,0,0,0,0,0,0,0,0,0,0,0.4119,0.412,0,0.4216,0.4217,0.4218,0.4263,0.4263,0.4263,0.4263,0.436,0.4363,0.4365,0,0,0,0,0,0,0,0,0,0,0,0,0,0.3972,0.3975,0.4119,0.412,0.4122,0.4216,0.4217,0.4218,0.4263,0.4263,0.4263,0.4263,0.4359,0.4362,0.4366,0,0,0,0,0,0,0,0,0,0,0,0,0,0.4049,0.3976,0.4119,0.4155,0.4159,0.4215,0.4217,0.4219,0.4263,0.4263,0.4263,0.4263,0.4358,0.4362,0.4366,0.4393,0,0,0.4378,0.438,0,0,0,0,0,0,0,0,0.4045,0.4054,0.4149,0.4153,0.4158,0.4227,0.4201,0.4277,0.4263,0.4224,0.4263,0.4263,0.4316,0.4323,0.4342,0.4397,0.4401,0.4379,0.4381,0.4383,0.4384,0,0,0,0,0,0,0,0.4039,0.4051,0.4157,0.415,0.4156,0.4166,0.4177,0.4216,0.4269,0.4227,0.423,0.4241,0.4318,0.4338,0.4344,0.4403,0.4379,0.4382,0.4385,0.4386,0.4485,0.4486,0,0,0,0,0,0,0.4028,0.4046,0.4154,0.416,0.41,0.4169,0.4181,0.4205,0.4269,0.4278,0.4241,0.4243,0.4331,0.434,0.4348,0.4384,0.4383,0.4386,0.4389,0.4485,0.4486,0.4486,0,0,0,0,0,0,0.4025,0.4038,0.415,0.4104,0.4119,0.4172,0.4198,0.4207,0.4226,0.428,0.4289,0.4251,0.4331,0.4342,0.4381,0.4388,0.4388,0.4392,0.4485,0.4485,0.4486,0.4455,0,0,0,0,0,0,0.4021,0.4036,0.4047,0.4104,0.4122,0.4183,0.4198,0.4209,0.4233,0.4236,0.4292,0.4301,0.4332,0.4375,0.4385,0.4393,0.4395,0.4485,0.4485,0.4486,0.4456,0.4454,0.4453,0,0,0,0,0,0.4015,0.4034,0.4047,0.406,0.4136,0.4183,0.4193,0.4229,0.4234,0.4245,0.4279,0.4299,0.4385,0.4379,0.4391,0.44,0.4484,0.4485,0.4486,0.4456,0.4454,0.4453,0,0,0,0,0,0,0.3976,0.4042,0.4058,0.4096,0.4133,0.419,0.4206,0.4226,0.4263,0.4264,0.4307,0.4319,0.4354,0.4381,0.4372,0.4429,0.4437,0.444,0.441,0.4409,0.4408,0.4401,0.4398,0,0,0,0,0,0.3972,0.4004,0.406,0.4089,0.4107,0.4153,0.4174,0.4199,0.4239,0.4255,0.4293,0.4331,0.4367,0.4389,0.4425,0.446,0.4472,0.4472,0.447,0.4469,0.4471,0.4491,0.4492,0.4488,0.4488,0.4488,0,0,0.3963,0.4004,0.4022,0.4082,0.4114,0.4146,0.4166,0.4199,0.4224,0.426,0.43,0.4328,0.4374,0.4411,0.4429,0.4434,0.4475,0.447,0.4468,0.4471,0.4492,0.4492,0.4493,0.4488,0.4488,0.4488,0,0,0.3965,0.3999,0.4026,0.4058,0.4106,0.4137,0.4143,0.4198,0.4218,0.4258,0.4287,0.4316,0.4377,0.4408,0.4432,0.4445,0.4465,0.4456,0.4449,0.4468,0.4469,0.4469,0.4474,0.4475,0.4458,0.4457,0.4457,0,0.3948,0.3999,0.4037,0.407,0.4095,0.413,0.4158,0.4187,0.4244,0.4261,0.4266,0.4343,0.4376,0.4421,0.4424,0.4443,0.4451,0.445,0.4466,0.4466,0.4467,0.4473,0.4474,0.4456,0.4456,0.4456,0.4456,0,0.3976,0.4011,0.4027,0.4082,0.411,0.4139,0.4182,0.4205,0.4227,0.4257,0.4297,0.4338,0.4383,0.4396,0.4417,0.4444,0.4445,0.4457,0.4466,0.4466,0.4472,0.4474,0.4454,0.4455,0.4455,0.4455,0,0,0.3956,0.4032,0.4037,0.4063,0.4119,0.4147,0.4178,0.4222,0.4241,0.4279,0.4307,0.4357,0.4369,0.4396,0.4421,0.4438,0.4447,0.4448,0.445,0.4447,0.4478,0.4469,0.4471,0.446,0.446,0.4461,0.4475,0,0.3965,0.4023,0.4059,0.4103,0.4135,0.4169,0.4196,0.4233,0.4262,0.4293,0.4325,0.436,0.4373,0.4389,0.4408,0.4442,0.4453,0.4441,0.4485,0.4487,0.4473,0.4474,0.4464,0.4476,0.4477,0.4477,0.4478,0,0.3984,0.4022,0.4069,0.4122,0.4137,0.4161,0.4205,0.4234,0.4277,0.4297,0.4327,0.4353,0.4387,0.4392,0.444,0.443,0.4451,0.447,0.4471,0.4477,0.4482,0.448,0.448,0.4482,0.4482,0.4481,0.4481,0,0.3964,0.4028,0.4064,0.4085,0.4148,0.4164,0.419,0.4233,0.4258,0.4295,0.4312,0.4353,0.4375,0.4406,0.4442,0.4443,0.4486,0.4495,0.4504,0.4503,0.4511,0.451,0.4515,0.4524,0.4524,0.4524,0.4524,0,0.3971,0.3999,0.4057,0.4079,0.4111,0.4151,0.4181,0.4211,0.4248,0.4277,0.4308,0.4334,0.438,0.4412,0.444,0.4475,0.4485,0.4502,0.4509,0.4499,0.4497,0.4513,0.4513,0.4524,0.4524,0.4524,0.4524,0,0.3955,0.3995,0.4037,0.4093,0.4108,0.4129,0.4176,0.4199,0.423,0.4265,0.4276,0.4323,0.4362,0.4401,0.4453,0.4472,0.4507,0.4516,0.4492,0.4497,0.4503,0.4502,0.4519,0.4523,0.4528,0.4528,0.4528,0,0.3957,0.3979,0.4038,0.406,0.4086,0.412,0.4146,0.4186,0.4211,0.4261,0.4278,0.4319,0.4355,0.4415,0.4454,0.4494,0.4505,0.4508,0.4511,0.45,0.4505,0.4503,0.4506,0.4506,0.4506,0.4506,0.4506,0,0.3956,0.3975,0.4011,0.4054,0.4083,0.4118,0.4155,0.4171,0.4218,0.4245,0.4285,0.4312,0.4366,0.4406,0.4451,0.4478,0.45,0.4504,0.4509,0.4499,0.4484,0.4493,0.4489,0.4504,0.4504,0.4504,0.4504,0.4504,0.395,0.3971,0.4016,0.4055,0.4087,0.412,0.4144,0.4178,0.4213,0.426,0.4281,0.4322,0.4364,0.4426,0.4453,0.4485,0.4491,0.4497,0.4498,0.4499,0.4497,0.4479,0.4493,0.4493,0.4493,0.4494,0.4494,0,0.3951,0.3982,0.4017,0.4067,0.4098,0.4116,0.4157,0.4181,0.4217,0.4255,0.4289,0.4335,0.4375,0.4417,0.4459,0.4476,0.4487,0.4486,0.4485,0.4491,0.4489,0.4482,0.4476,0.4476,0.4476,0.4476,0.4476,0.4476,0.3955,0.3993,0.4017,0.407,0.41,0.4141,0.4163,0.4194,0.4224,0.4275,0.4308,0.4335,0.4375,0.442,0.4457,0.4468,0.4482,0.4478,0.4492,0.449,0.4491,0.4492,0.4485,0.448,0.448,0.4491,0.4491,0.4491]},{"header":{"parameterUnit":"m.s-1","parameterCategory":1,"la1":30.2991,"la2":30.254,"lo1":-89.0895,"lo2":-89.0444,"dy":0.0017,"dx":0.0017,"nx":28,"ny":28,"refTime":"2024-07-24T03:00:00:Z","depth":0,"parameterNumber":3,"parameterNumberName":"V-component_of_WINDS"},"data":[0,0,0,0,0,0,0,0,0,0,0,0,0,0,0,0,0,0,0,0,0,0,0,0,0,0,0,0,0,0,0,0,0,0,0,0,0,0,0,0,0,0,0,0,0,0,0,0,0,0,0,0,0,0,0,0,0,0,1.0955,1.0954,0,1.0913,1.0913,1.0912,1.0883,1.0883,1.0883,1.0882,1.0837,1.0836,1.0835,0,0,0,0,0,0,0,0,0,0,0,0,0,1.1008,1.1007,1.0955,1.0954,1.0954,1.0913,1.0913,1.0912,1.0883,1.0883,1.0882,1.0882,1.0837,1.0836,1.0835,0,0,0,0,0,0,0,0,0,0,0,0,0,1.0977,1.1006,1.0955,1.0935,1.0932,1.0913,1.0913,1.0912,1.0883,1.0883,1.0882,1.0882,1.0838,1.0836,1.0835,1.0832,0,0,1.083,1.0829,0,0,0,0,0,0,0,0,1.0979,1.0975,1.0938,1.0936,1.0933,1.0903,1.0914,1.0885,1.0883,1.0902,1.0882,1.0882,1.0859,1.0856,1.0848,1.083,1.0828,1.083,1.0829,1.0828,1.0828,0,0,0,0,0,0,0,1.0981,1.0977,1.0938,1.0938,1.0935,1.0927,1.0922,1.0909,1.0882,1.09,1.0898,1.0893,1.0858,1.085,1.0847,1.0827,1.083,1.0828,1.0828,1.0827,1.0803,1.0803,0,0,0,0,0,0,1.0987,1.0979,1.094,1.0937,1.0956,1.0926,1.0921,1.0913,1.0883,1.0878,1.0894,1.0892,1.0853,1.0849,1.0845,1.084,1.0828,1.0827,1.0826,1.0803,1.0803,1.0803,0,0,0,0,0,0,1.0988,1.0983,1.0941,1.0957,1.0951,1.0926,1.0917,1.0912,1.0905,1.0878,1.0873,1.0891,1.0852,1.0847,1.0835,1.0838,1.0826,1.0825,1.0803,1.0803,1.0803,1.0828,0,0,0,0,0,0,1.099,1.0984,1.0983,1.0958,1.0951,1.0933,1.0917,1.0912,1.0902,1.09,1.0874,1.0869,1.0852,1.0838,1.0834,1.0835,1.0824,1.0802,1.0803,1.0803,1.0827,1.0829,1.0831,0,0,0,0,0,1.0991,1.0991,1.0983,1.0979,1.0949,1.0933,1.0929,1.0909,1.0903,1.0901,1.0884,1.087,1.0838,1.0837,1.0832,1.0833,1.0802,1.0803,1.0803,1.0826,1.0829,1.0831,0,0,0,0,0,0,1.1017,1.0988,1.0978,1.097,1.0954,1.0928,1.0926,1.0913,1.0898,1.0897,1.0872,1.0867,1.0857,1.0844,1.0843,1.0829,1.0818,1.0818,1.0837,1.084,1.0842,1.0845,1.0822,0,0,0,0,0,1.1022,1.1012,1.0987,1.0982,1.0974,1.0952,1.0944,1.093,1.0913,1.0906,1.0887,1.087,1.0856,1.0847,1.0833,1.0825,1.0819,1.0824,1.0826,1.0828,1.0828,1.0822,1.0824,1.0806,1.0806,1.0806,0,0,1.1031,1.1014,1.1009,1.0986,1.0973,1.0962,1.0946,1.0936,1.0927,1.0904,1.0891,1.0877,1.0856,1.0847,1.0841,1.0835,1.0831,1.0829,1.083,1.0829,1.0823,1.0825,1.0826,1.0806,1.0806,1.0806,0,0,1.1043,1.1029,1.1024,1.101,1.099,1.0975,1.0974,1.095,1.094,1.0927,1.0909,1.0899,1.0875,1.0861,1.0851,1.0858,1.0844,1.0854,1.0865,1.086,1.0861,1.0863,1.0865,1.0866,1.0854,1.0854,1.0854,0,1.1057,1.1041,1.1022,1.1013,1.1003,1.0982,1.0976,1.0964,1.094,1.0933,1.0927,1.0898,1.0882,1.0868,1.087,1.0863,1.086,1.0856,1.0863,1.0864,1.0865,1.0866,1.0867,1.0855,1.0855,1.0855,1.0855,0,1.1059,1.1049,1.1046,1.1025,1.1015,1.1007,1.0986,1.0978,1.0966,1.0951,1.0938,1.0919,1.09,1.0896,1.0884,1.0881,1.0878,1.0868,1.0857,1.0868,1.0869,1.087,1.0857,1.0857,1.0856,1.0856,0,0,1.1085,1.1053,1.1053,1.1042,1.1019,1.101,1.1001,1.0984,1.0977,1.0962,1.0953,1.0934,1.0925,1.0913,1.0899,1.0895,1.0901,1.0885,1.0884,1.0888,1.0896,1.0903,1.0904,1.0892,1.0892,1.0892,1.0897,0,1.1092,1.1076,1.1059,1.1049,1.1038,1.1019,1.1011,1.0995,1.0982,1.097,1.0955,1.0941,1.0931,1.0923,1.0918,1.0901,1.0902,1.0901,1.0883,1.0882,1.0888,1.0904,1.0912,1.0917,1.0897,1.0898,1.0898,0,1.1099,1.1085,1.1074,1.1052,1.1046,1.104,1.1023,1.1012,1.0994,1.0984,1.0972,1.0957,1.0946,1.0937,1.0921,1.0921,1.0913,1.0903,1.0903,1.09,1.089,1.0901,1.0919,1.0919,1.0898,1.0898,1.0898,0,1.1118,1.1096,1.1087,1.1079,1.1053,1.1048,1.1037,1.1019,1.1009,1.0994,1.0988,1.0971,1.0962,1.0949,1.093,1.0925,1.0916,1.0906,1.0907,1.0907,1.0905,1.0905,1.0921,1.0901,1.0901,1.0901,1.0901,0,1.1128,1.1121,1.1095,1.1089,1.1082,1.1062,1.1054,1.1041,1.1025,1.1016,1.0998,1.0989,1.0964,1.0953,1.0938,1.0926,1.0922,1.0913,1.0909,1.0915,1.0916,1.0908,1.0907,1.0901,1.0901,1.0901,1.0901,0,1.1147,1.113,1.1118,1.1094,1.1088,1.1084,1.1063,1.1056,1.1042,1.103,1.1026,1.1003,1.0989,1.0969,1.0947,1.0937,1.0928,1.0922,1.0934,1.0931,1.0934,1.0933,1.0944,1.0945,1.0925,1.0926,1.0926,0,1.1154,1.1149,1.1126,1.1119,1.1108,1.1097,1.1088,1.1068,1.1059,1.1038,1.1033,1.1018,1.1004,1.0981,1.0962,1.0945,1.0938,1.0943,1.0936,1.0941,1.0938,1.0938,1.0937,1.0945,1.0945,1.0946,1.0946,0,1.1169,1.116,1.1148,1.1133,1.1123,1.111,1.1096,1.1091,1.1068,1.1058,1.1044,1.1033,1.1012,1.0996,1.0977,1.0965,1.0951,1.0949,1.0948,1.0953,1.096,1.0956,1.0938,1.0948,1.0948,1.0948,1.0948,1.0947,1.1182,1.1176,1.1159,1.1146,1.1134,1.1121,1.1113,1.1099,1.1086,1.1068,1.1057,1.1043,1.1024,1.0998,1.0986,1.0974,1.0968,1.0967,1.0967,1.0967,1.0969,1.0963,1.097,1.097,1.097,1.097,1.097,0,1.1194,1.1183,1.1171,1.1152,1.1142,1.1132,1.1116,1.1107,1.1095,1.108,1.1067,1.105,1.1035,1.1015,1.0998,1.0992,1.0985,1.0988,1.0988,1.0985,1.0975,1.0977,1.0994,1.0994,1.0994,1.0994,1.0994,1.0994,1.12,1.119,1.118,1.1163,1.1151,1.1138,1.113,1.1118,1.1105,1.1087,1.1075,1.1063,1.1045,1.1027,1.1012,1.1006,1.1001,1.1006,1.0998,1.0988,1.0986,1.0984,1.0986,1.1005,1.1005,1.1009,1.101,1.101]}]]